When you browse on this site, cookies collect data to enhance your experience and personalize the content and advertising you see.
Visit our Privacy Policy to learn more. By continuing to use the site, you agree to this use of cookies and data.
  • En España
  • Lista de países
  • Para 7 días
  • Temperatura del agua
  • Mapa Satelital
  • El tiempo en el mapa
  • Informadores
  • user-avatar
    Iniciar sesión

    Tiempo cada hora Akka

    Hoy, 23 Abril, Martes

    Tiempo Temperatura Precipitaciones Viento Presión Humedad
    00:00 +14°C° 0 mm 1 mps 764 mmHg 78%
    01:00 +14°C° 0 mm 1 mps 764 mmHg 79%
    02:00 +14°C° 0 mm 1 mps 764 mmHg 79%
    03:00 +14°C° 0 mm 1 mps 765 mmHg 80%
    04:00 +13°C° 0 mm 0 mps 765 mmHg 80%
    05:00 +12°C° 0 mm 0 mps 765 mmHg 81%
    06:00 +15°C° 0 mm 1 mps 766 mmHg 76%
    07:00 +16°C° 0 mm 1 mps 766 mmHg 71%
    08:00 +18°C° 0 mm 1 mps 766 mmHg 66%
    09:00 +19°C° 0 mm 1 mps 767 mmHg 62%
    10:00 +19°C° 0 mm 2 mps 767 mmHg 58%
    11:00 +20°C° 0 mm 3 mps 767 mmHg 54%
    12:00 +20°C° 0 mm 3 mps 767 mmHg 55%
    13:00 +20°C° 0 mm 4 mps 767 mmHg 56%
    14:00 +20°C° 0 mm 5 mps 766 mmHg 57%
    15:00 +20°C° 0 mm 5 mps 766 mmHg 59%
    16:00 +19°C° 0 mm 5 mps 766 mmHg 61%
    17:00 +19°C° 0 mm 5 mps 766 mmHg 63%
    18:00 +17°C° 0 mm 5 mps 766 mmHg 67%
    19:00 +15°C° 0 mm 4 mps 767 mmHg 70%
    20:00 +14°C° 0 mm 4 mps 767 mmHg 74%
    21:00 +14°C° 0 mm 4 mps 767 mmHg 75%
    22:00 +14°C° 0 mm 4 mps 767 mmHg 75%
    23:00 +14°C° 0 mm 4 mps 767 mmHg 76%

    Mañana, 24 Abril, Miércoles

    Tiempo Temperatura Precipitaciones Viento Presión Humedad
    00:00 +14°C° 0 mm 4 mps 767 mmHg 76%
    01:00 +14°C° 0 mm 4 mps 767 mmHg 77%
    02:00 +14°C° 0 mm 4 mps 767 mmHg 77%
    03:00 +14°C° 0 mm 3 mps 767 mmHg 77%
    04:00 +14°C° 0 mm 3 mps 767 mmHg 77%
    05:00 +14°C° 0 mm 3 mps 767 mmHg 76%
    06:00 +17°C° 0 mm 3 mps 767 mmHg 69%
    07:00 +19°C° 0 mm 3 mps 767 mmHg 62%
    08:00 +21°C° 0 mm 2 mps 768 mmHg 55%
    09:00 +22°C° 0 mm 3 mps 768 mmHg 49%
    10:00 +25°C° 0 mm 3 mps 768 mmHg 43%
    11:00 +26°C° 0 mm 3 mps 768 mmHg 36%
    12:00 +26°C° 0 mm 4 mps 767 mmHg 39%
    13:00 +26°C° 0 mm 5 mps 767 mmHg 41%
    14:00 +26°C° 0 mm 6 mps 766 mmHg 44%
    15:00 +24°C° 0 mm 6 mps 766 mmHg 48%
    16:00 +23°C° 0 mm 5 mps 766 mmHg 52%
    17:00 +23°C° 0 mm 5 mps 765 mmHg 56%
    18:00 +21°C° 0 mm 5 mps 765 mmHg 59%
    19:00 +20°C° 0 mm 5 mps 765 mmHg 61%
    20:00 +19°C° 0 mm 5 mps 766 mmHg 63%
    21:00 +19°C° 0 mm 4 mps 766 mmHg 63%
    22:00 +19°C° 0 mm 4 mps 765 mmHg 63%
    23:00 +18°C° 0 mm 3 mps 765 mmHg 63%

    Pasado mañana, 25 Abril, Jueves

    Tiempo Temperatura Precipitaciones Viento Presión Humedad
    00:00 +18°C° 0 mm 3 mps 765 mmHg 63%
    01:00 +18°C° 0 mm 3 mps 765 mmHg 62%
    02:00 +18°C° 0 mm 3 mps 765 mmHg 61%
    03:00 +18°C° 0 mm 3 mps 765 mmHg 59%
    04:00 +18°C° 0 mm 3 mps 765 mmHg 57%
    05:00 +18°C° 0 mm 3 mps 765 mmHg 55%
    06:00 +20°C° 0 mm 3 mps 765 mmHg 51%
    07:00 +23°C° 0 mm 2 mps 765 mmHg 47%
    08:00 +25°C° 0 mm 2 mps 765 mmHg 43%
    09:00 +26°C° 0 mm 2 mps 765 mmHg 40%
    10:00 +27°C° 0 mm 2 mps 765 mmHg 37%
    11:00 +29°C° 0 mm 2 mps 765 mmHg 34%
    12:00 +29°C° 0 mm 3 mps 764 mmHg 36%
    13:00 +28°C° 0 mm 4 mps 764 mmHg 39%
    14:00 +28°C° 0 mm 5 mps 763 mmHg 41%
    15:00 +27°C° 0 mm 5 mps 763 mmHg 45%
    16:00 +26°C° 0 mm 5 mps 763 mmHg 49%
    17:00 +25°C° 0 mm 5 mps 763 mmHg 52%
    18:00 +22°C° 0 mm 4 mps 763 mmHg 55%
    19:00 +21°C° 0 mm 4 mps 763 mmHg 58%
    20:00 +19°C° 0 mm 4 mps 763 mmHg 61%
    21:00 +19°C° 0 mm 4 mps 763 mmHg 60%
    22:00 +19°C° 0 mm 3 mps 763 mmHg 60%
    23:00 +19°C° 0 mm 3 mps 763 mmHg 59%

    26 Abril, Viernes

    Tiempo Temperatura Precipitaciones Viento Presión Humedad
    00:00 +19°C° 0 mm 3 mps 763 mmHg 58%
    01:00 +19°C° 0 mm 2 mps 762 mmHg 56%
    02:00 +19°C° 0 mm 2 mps 762 mmHg 55%
    03:00 +18°C° 0 mm 2 mps 762 mmHg 55%
    04:00 +19°C° 0 mm 1 mps 762 mmHg 54%
    05:00 +19°C° 0 mm 1 mps 762 mmHg 54%
    06:00 +21°C° 0 mm 1 mps 762 mmHg 51%
    07:00 +23°C° 0 mm 1 mps 762 mmHg 49%
    08:00 +23°C° 0 mm 0 mps 762 mmHg 46%
    09:00 +26°C° 0 mm 1 mps 762 mmHg 44%
    10:00 +27°C° 0 mm 2 mps 762 mmHg 42%
    11:00 +28°C° 0 mm 3 mps 762 mmHg 40%
    12:00 +28°C° 0 mm 3 mps 762 mmHg 43%
    13:00 +27°C° 0 mm 4 mps 761 mmHg 46%
    14:00 +27°C° 0 mm 4 mps 761 mmHg 49%
    15:00 +26°C° 0 mm 3 mps 761 mmHg 52%
    16:00 +25°C° 0 mm 3 mps 760 mmHg 55%
    17:00 +24°C° 0 mm 2 mps 760 mmHg 58%
    18:00 +23°C° 0 mm 1 mps 760 mmHg 61%
    19:00 +22°C° 0 mm 1 mps 761 mmHg 63%
    20:00 +19°C° 0 mm 0 mps 761 mmHg 66%
    21:00 +21°C° 0 mm 1 mps 761 mmHg 64%
    22:00 +21°C° 0 mm 1 mps 760 mmHg 63%
    23:00 +20°C° 0 mm 2 mps 760 mmHg 61%

    27 Abril, Sábado

    Tiempo Temperatura Precipitaciones Viento Presión Humedad
    00:00 +21°C° 0 mm 1 mps 760 mmHg 64%
    01:00 +21°C° 0 mm 1 mps 760 mmHg 66%
    02:00 +18°C° 0 mm 0 mps 760 mmHg 68%
    03:00 +20°C° 0 mm 1 mps 760 mmHg 69%
    04:00 +19°C° 0 mm 1 mps 760 mmHg 70%
    05:00 +19°C° 0 mm 1 mps 760 mmHg 71%
    06:00 +21°C° 0 mm 1 mps 760 mmHg 65%
    07:00 +22°C° 0 mm 1 mps 760 mmHg 60%
    08:00 +24°C° 0 mm 2 mps 760 mmHg 54%
    09:00 +24°C° 0 mm 2 mps 760 mmHg 52%
    10:00 +25°C° 0 mm 2 mps 760 mmHg 50%
    11:00 +26°C° 0 mm 3 mps 760 mmHg 48%
    12:00 +26°C° 0 mm 3 mps 760 mmHg 50%
    13:00 +26°C° 0 mm 3 mps 760 mmHg 53%
    14:00 +26°C° 0 mm 3 mps 759 mmHg 55%
    15:00 +25°C° 0 mm 3 mps 759 mmHg 57%
    16:00 +24°C° 0 mm 2 mps 759 mmHg 59%
    17:00 +24°C° 0 mm 2 mps 759 mmHg 62%
    18:00 +22°C° 0 mm 1 mps 759 mmHg 66%
    19:00 +21°C° 0 mm 1 mps 760 mmHg 71%
    20:00 +18°C° 0 mm 0 mps 760 mmHg 76%
    21:00 +18°C° 0 mm 0 mps 760 mmHg 76%
    22:00 +18°C° 0 mm 0 mps 760 mmHg 76%
    23:00 +17°C° 0 mm 0 mps 760 mmHg 76%

    28 Abril, Domingo

    Tiempo Temperatura Precipitaciones Viento Presión Humedad
    00:00 +17°C° 0 mm 0 mps 760 mmHg 75%
    01:00 +17°C° 0 mm 0 mps 760 mmHg 75%
    02:00 +17°C° 0 mm 0 mps 759 mmHg 75%
    03:00 +17°C° 0 mm 0 mps 759 mmHg 75%
    04:00 +17°C° 0 mm 0 mps 760 mmHg 75%
    05:00 +17°C° 0 mm 0 mps 760 mmHg 75%
    06:00 +18°C° 0 mm 0 mps 760 mmHg 70%
    07:00 +20°C° 0 mm 0 mps 760 mmHg 64%
    08:00 +22°C° 0 mm 0 mps 760 mmHg 59%
    09:00 +25°C° 0 mm 1 mps 760 mmHg 55%
    10:00 +26°C° 0 mm 2 mps 760 mmHg 52%
    11:00 +27°C° 0 mm 3 mps 760 mmHg 48%
    12:00 +27°C° 0 mm 3 mps 760 mmHg 49%
    13:00 +27°C° 0 mm 4 mps 759 mmHg 50%
    14:00 +27°C° 0 mm 4 mps 759 mmHg 51%
    15:00 +27°C° 0 mm 4 mps 759 mmHg 54%
    16:00 +26°C° 0 mm 3 mps 759 mmHg 56%
    17:00 +25°C° 0 mm 3 mps 759 mmHg 59%
    18:00 +24°C° 0 mm 3 mps 759 mmHg 62%
    19:00 +23°C° 0 mm 2 mps 759 mmHg 66%
    20:00 +20°C° 0 mm 2 mps 760 mmHg 70%
    21:00 +20°C° 0 mm 2 mps 760 mmHg 70%
    22:00 +20°C° 0 mm 2 mps 760 mmHg 70%
    23:00 +21°C° 0 mm 1 mps 760 mmHg 69%
    Mostrar más